SR5NLK-1 Weather Reports


time (UTC)temp
C
wind
direction
speed
KPH
gust
KPH
rain 1hr
cm
rain 24hr
cm
rain mn
cm
humidity
%
barometer
mb
20260903165441 21 202 3.2 4.8 0.00 0.00 0.00 55 1078.4
20260903164941 21 180 1.6 4.8 0.00 0.00 0.00 55 1025.6
20260903164441 21 225 4.8 4.8 0.00 0.00 0.00 54 1083.7
20260903163941 21 225 3.2 6.4 0.00 0.00 0.00 54 1022.1
20260903163640 22 225 3.2 6.4 0.00 0.00 0.00 53 1080.0
20260903163441 22 225 3.2 6.4 0.00 0.00 0.00 53 1091.1
20260903162941 22 225 1.6 8.0 0.00 0.00 0.00 52 1014.6
20260903162441 22 225 3.2 9.7 0.00 0.00 0.00 52 1076.8
20260903161941 22 270 4.8 9.7 0.00 0.00 0.00 51 1058.0
20260903161441 23 202 3.2 12.9 0.00 0.00 0.00 51 1031.1
20260903160941 23 247 4.8 12.9 0.00 0.00 0.00 50 1025.6
20260903160441 23 270 6.4 11.3 0.00 0.00 0.00 50 1067.3
20260903160340 23 270 3.2 11.3 0.00 0.00 0.00 50 1090.9
20260903155941 23 247 3.2 11.3 0.00 0.00 0.00 49 1033.4
20260903155441 23 225 6.4 12.9 0.00 0.00 0.00 49 1073.8
20260903154941 23 225 3.2 11.3 0.00 0.00 0.00 49 1071.5
20260903154441 23 225 4.8 8.0 0.00 0.00 0.00 49 1075.3
20260903153941 23 225 11.3 12.9 0.00 0.00 0.00 48 1034.3
20260903153441 23 202 4.8 22.5 0.00 0.00 0.00 48 1007.5
20260903153040 23 270 9.7 14.5 0.00 0.00 0.00 48 1043.8
20260903152941 23 270 9.7 14.5 0.00 0.00 0.00 48 1068.9
20260903152441 24 247 14.5 16.1 0.00 0.00 0.00 48 1040.4
20260903151942 24 202 3.2 9.7 0.00 0.00 0.00 47 1025.3
20260903151441 24 202 9.7 12.9 0.00 0.00 0.00 47 1036.6
20260903150941 24 225 9.7 9.7 0.00 0.00 0.00 47 1070.2
20260903150441 25 225 3.2 17.7 0.00 0.00 0.00 46 1067.4
20260903145942 25 202 6.4 14.5 0.00 0.00 0.00 46 1022.7
20260903145740 25 225 8.0 14.5 0.00 0.00 0.00 46 1059.2
20260903145442 25 270 11.3 12.9 0.00 0.00 0.00 46 1062.6
20260903144941 25 202 8.0 11.3 0.00 0.00 0.00 46 1081.5
20260903144442 25 202 4.8 17.7 0.00 0.00 0.00 46 1038.6
20260903143942 25 225 14.5 17.7 0.00 0.00 0.00 46 1059.1
20260903143441 25 247 14.5 16.1 0.00 0.00 0.00 47 1079.2
20260903142941 24 247 14.5 16.1 0.00 0.00 0.00 47 1056.3
20260903142441 24 202 8.0 16.1 0.00 0.00 0.00 47 1032.5
20260903141941 24 292 9.7 19.3 0.00 0.00 0.00 47 1073.7
20260903141442 24 270 1.6 14.5 0.00 0.00 0.00 47 1066.5
20260903140941 24 270 6.4 11.3 0.00 0.00 0.00 47 1059.5
20260903140442 24 270 4.8 16.1 0.00 0.00 0.00 47 1056.4
20260903135942 24 270 4.8 6.4 0.00 0.00 0.00 47 1081.3
20260903135441 24 270 6.4 12.9 0.00 0.00 0.00 46 1057.4
20260903135141 24 270 11.3 19.3 0.00 0.00 0.00 46 1037.5
20260903134942 24 225 4.8 19.3 0.00 0.00 0.00 46 1071.3
20260903134442 24 247 4.8 11.3 0.00 0.00 0.00 46 1071.7
20260903133942 25 292 8.0 16.1 0.00 0.00 0.00 45 1020.2
20260903133442 25 270 16.1 22.5 0.00 0.00 0.00 44 1061.3
20260903132942 25 270 11.3 20.9 0.00 0.00 0.00 44 1053.2
20260903132442 26 225 4.8 11.3 0.00 0.00 0.00 43 1016.3
20260903131942 25 225 4.8 9.7 0.00 0.00 0.00 44 1078.0
20260903131841 25 225 8.0 16.1 0.00 0.00 0.00 44 1067.7
20260903131442 25 225 6.4 16.1 0.00 0.00 0.00 44 1065.4
20260903130942 25 270 6.4 17.7 0.00 0.00 0.00 43 1046.3
20260903130442 25 292 16.1 19.3 0.00 0.00 0.00 43 1037.5
20260903125942 25 270 12.9 22.5 0.00 0.00 0.00 43 1022.8
20260903125442 26 180 6.4 20.9 0.00 0.00 0.00 43 1053.2
20260903124942 26 292 17.7 20.9 0.00 0.00 0.00 42 1067.6
20260903124541 26 292 6.4 14.5 0.00 0.00 0.00 42 1046.9
20260903124442 26 247 8.0 14.5 0.00 0.00 0.00 42 1030.7
20260903123942 26 247 3.2 16.1 0.00 0.00 0.00 43 1010.5
20260903123442 25 247 16.1 16.1 0.00 0.00 0.00 43 1053.5
20260903122942 25 270 12.9 19.3 0.00 0.00 0.00 43 1043.8
20260903122442 25 270 16.1 16.1 0.00 0.00 0.00 43 1046.9
20260903121942 25 202 6.4 16.1 0.00 0.00 0.00 43 1021.7
20260903121442 25 292 9.7 12.9 0.00 0.00 0.00 43 1031.2
20260903121241 25 270 4.8 17.7 0.00 0.00 0.00 43 1053.2
20260903120942 26 247 4.8 17.7 0.00 0.00 0.00 43 1050.1
20260903120442 25 292 9.7 20.9 0.00 0.00 0.00 44 1040.6
20260903114942 25 247 6.4 16.1 0.00 0.00 0.00 43 1062.7
20260903114442 25 270 9.7 17.7 0.00 0.00 0.00 43 1059.5
20260903113941 25 247 12.9 17.7 0.00 0.00 0.00 43 1040.6
20260903113442 25 270 3.2 14.5 0.00 0.00 0.00 44 1043.8
20260903112942 25 270 9.7 20.9 0.00 0.00 0.00 43 1050.1
20260903112442 25 22 6.4 19.3 0.00 0.00 0.00 43 1037.5
20260903111942 25 292 6.4 17.7 0.00 0.00 0.00 43 1034.3
20260903111442 25 247 16.1 16.1 0.00 0.00 0.00 43 1037.4
20260903110942 25 270 8.0 16.1 0.00 0.00 0.00 43 1031.1
20260903110641 25 202 6.4 20.9 0.00 0.00 0.00 43 1043.7
20260903110442 25 270 4.8 20.9 0.00 0.00 0.00 43 1043.8
20260903105942 25 22 6.4 17.7 0.00 0.00 0.00 43 1034.3
20260903105442 25 292 9.7 25.7 0.00 0.00 0.00 43 1062.7
20260903104942 25 270 16.1 25.7 0.00 0.00 0.00 44 1024.8
20260903104442 25 247 9.7 22.5 0.00 0.00 0.00 44 1046.9
20260903103942 24 247 11.3 20.9 0.00 0.00 0.00 44 1031.1
20260903103442 25 315 16.1 19.3 0.00 0.00 0.00 43 1037.5
20260903103341 25 270 6.4 19.3 0.00 0.00 0.00 43 1050.1
20260903102942 25 270 17.7 22.5 0.00 0.00 0.00 43 1018.5
20260903102442 25 292 14.5 27.4 0.00 0.00 0.00 42 1037.5
20260903101942 25 270 8.0 20.9 0.00 0.00 0.00 44 1046.9
20260903101442 25 270 8.0 30.6 0.00 0.00 0.00 44 1040.6
20260903100942 25 270 6.4 25.7 0.00 0.00 0.00 44 1034.3
20260903100442 25 270 14.5 22.5 0.00 0.00 0.00 44 1031.1
20260903100041 25 225 11.3 16.1 0.00 0.00 0.00 46 1034.3
20260903095942 24 202 16.1 16.1 0.00 0.00 0.00 46 1031.1
20260903095442 23 270 19.3 22.5 0.00 0.00 0.00 46 1040.6
20260903094942 23 292 6.4 19.3 0.00 0.00 0.00 45 1031.2
20260903094442 23 225 6.4 24.1 0.00 0.00 0.00 46 1037.5
20260903093942 23 225 4.8 17.7 0.00 0.00 0.00 46 1018.5
20260903093442 24 292 6.4 19.3 0.00 0.00 0.00 43 1021.7
20260903092942 25 247 6.4 24.1 0.00 0.00 0.00 45 1021.7
20260903092741 25 270 9.7 14.5 0.00 0.00 0.00 44 1028.0
20260903092442 25 292 4.8 17.7 0.00 0.00 0.00 44 1028.0
20260903091942 25 270 4.8 19.3 0.00 0.00 0.00 45 1018.3
20260903091442 25 225 11.3 17.7 0.00 0.00 0.00 45 1043.8
20260903090943 25 270 16.1 16.1 0.00 0.00 0.00 45 1037.5
20260903090442 25 247 9.7 12.9 0.00 0.00 0.00 44 1024.8
20260903085948 25 247 3.2 12.9 0.00 0.00 0.00 45 1034.3
20260903085942 25 247 3.2 12.9 0.00 0.00 0.00 45 1034.3
20260903085441 25 225 3.2 20.9 0.00 0.00 0.00 45 1037.5
20260903084942 25 247 12.9 14.5 0.00 0.00 0.00 45 1028.0
20260903084442 25 225 3.2 11.3 0.00 0.00 0.00 45 1021.6
20260903083942 26 247 3.2 9.7 0.00 0.00 0.00 43 1034.3
20260903083442 27 292 6.4 19.3 0.00 0.00 0.00 42 1050.1
20260903082942 28 270 9.7 9.7 0.00 0.00 0.00 43 1031.1
20260903082442 28 292 6.4 9.7 0.00 0.00 0.00 42 1043.8
20260903082141 29 270 3.2 12.9 0.00 0.00 0.00 41 1031.1
20260903081942 30 315 4.8 12.9 0.00 0.00 0.00 41 1043.8
20260903081442 30 247 4.8 9.7 0.00 0.00 0.00 42 1031.1
20260903080942 31 270 3.2 8.0 0.00 0.00 0.00 40 1053.2
20260903080442 31 225 3.2 4.8 0.00 0.00 0.00 41 1046.9
20260903075942 31 270 0.0 8.0 0.00 0.00 0.00 42 1050.1
20260903075442 31 180 4.8 6.4 0.00 0.00 0.00 43 1018.5
20260903074942 30 90 3.2 8.0 0.00 0.00 0.00 44 1034.3
20260903074841 30 135 1.6 8.0 0.00 0.00 0.00 44 1031.2
20260903074442 30 202 3.2 9.7 0.00 0.00 0.00 44 1059.5
20260903073942 30 225 6.4 9.7 0.00 0.00 0.00 45 1028.0
20260903073442 30 180 3.2 9.7 0.00 0.00 0.00 44 1040.6
20260903072942 30 202 3.2 9.7 0.00 0.00 0.00 44 1031.1
20260903072442 30 202 6.4 9.7 0.00 0.00 0.00 44 1037.5
20260903071942 30 180 4.8 8.0 0.00 0.00 0.00 45 1034.3
20260903071541 30 270 4.8 6.4 0.00 0.00 0.00 44 1043.8
20260903071442 30 270 1.6 6.4 0.00 0.00 0.00 45 1043.8
20260903070942 30 270 3.2 4.8 0.00 0.00 0.00 47 1040.6
20260903070442 29 247 0.0 4.8 0.00 0.00 0.00 50 1050.0
20260903065442 26 202 3.2 4.8 0.00 0.00 0.00 55 1043.7
20260903064942 25 202 3.2 3.2 0.00 0.00 0.00 57 1053.2
20260903064241 25 225 4.8 4.8 0.00 0.00 0.00 55 1021.7
20260903063942 25 270 3.2 8.0 0.00 0.00 0.00 55 1065.8
20260903063442 25 22 1.6 43.5 0.00 0.00 0.00 54 1040.6
20260903062942 26 270 0.0 6.4 0.00 0.00 0.00 53 1062.7
20260903062442 27 225 6.4 8.0 0.00 0.00 0.00 52 1043.8
20260903061942 27 270 6.4 6.4 0.00 0.00 0.00 55 1023.4
20260903061442 27 157 0.0 4.8 0.00 0.00 0.00 58 1065.2
20260903060941 26 292 0.0 6.4 0.00 0.00 0.00 63 1067.4
20260903060442 23 247 1.6 3.2 0.00 0.00 0.00 70 1049.4
20260903055942 21 247 0.0 4.8 0.00 0.00 0.00 75 1082.3
20260903055442 20 247 3.2 3.2 0.00 0.00 0.00 76 1046.9
20260903054942 20 202 1.6 6.4 0.00 0.00 0.00 76 1058.1
20260903054442 20 135 0.0 1.6 0.00 0.00 0.00 79 1063.7
20260903053942 19 157 1.6 3.2 0.00 0.00 0.00 82 1011.3
20260903053641 18 225 0.0 3.2 0.00 0.00 0.00 82 1063.3
20260903053442 18 202 3.2 4.8 0.00 0.00 0.00 82 1063.2
20260903052943 17 202 4.8 6.4 0.00 0.00 0.00 83 1044.7
20260903052442 17 135 3.2 6.4 0.00 0.00 0.00 83 1035.3
20260903051942 17 202 1.6 4.8 0.00 0.00 0.00 84 1053.2
20260903051442 17 225 0.0 3.2 0.00 0.00 0.00 84 1078.4
20260903050942 17 180 0.0 3.2 0.00 0.00 0.00 86 1072.9
20260903050442 16 135 1.6 3.2 0.00 0.00 0.00 87 1057.1
20260903050341 16 135 1.6 3.2 0.00 0.00 0.00 87 1083.1
20260903045942 16 112 0.0 0.0 0.00 0.00 0.00 86 1089.1
20260903045442 15 157 0.0 0.0 0.00 0.00 0.00 85 1075.7
20260903044942 15 135 0.0 0.0 0.00 0.00 0.00 85 993.9
20260903044442 15 157 0.0 0.0 0.00 0.00 0.00 85 1078.4
20260903043943 15 112 0.0 3.2 0.00 0.00 0.00 85 1034.3
20260903043442 15 135 0.0 0.0 0.00 0.00 0.00 85 1028.0
20260903043042 14 157 0.0 0.0 0.00 0.00 0.00 85 1029.4
20260903042943 14 157 0.0 0.0 0.00 0.00 0.00 85 1047.9
20260903042442 14 67 0.0 0.0 0.00 0.00 0.00 84 1053.2
20260903041942 14 67 0.0 0.0 0.00 0.00 0.00 84 1050.5
20260903041443 14 112 0.0 0.0 0.00 0.00 0.00 84 1062.7
20260903040943 14 67 0.0 0.0 0.00 0.00 0.00 85 1053.3
20260903040443 14 67 0.0 0.0 0.00 0.00 0.00 85 1034.3
20260903035943 14 337 0.0 0.0 0.00 0.00 0.00 85 1053.2
20260903035742 14 337 0.0 0.0 0.00 0.00 0.00 85 1059.5
20260903035443 14 0 0.0 0.0 0.00 0.00 0.00 85 1068.1
20260903034943 14 157 0.0 3.2 0.00 0.00 0.00 85 1043.8
20260903034443 14 135 3.2 3.2 0.00 0.00 0.00 85 1046.9
20260903033943 14 157 1.6 3.2 0.00 0.00 0.00 85 1050.1
20260903033443 14 135 1.6 3.2 0.00 0.00 0.00 85 1043.8
20260903032943 14 270 1.6 3.2 0.00 0.00 0.00 85 1043.8
20260903032442 14 247 0.0 3.2 0.00 0.00 0.00 85 1059.2
20260903031943 14 247 3.2 6.4 0.00 0.00 0.00 85 1056.4
20260903031443 14 202 0.0 3.2 0.00 0.00 0.00 85 1008.8
20260903030943 14 157 0.0 3.2 0.00 0.00 0.00 85 1031.2
20260903030443 14 202 1.6 3.2 0.00 0.00 0.00 85 1062.7
20260903025943 15 337 0.0 0.0 0.00 0.00 0.00 85 1047.0
20260903025443 15 0 0.0 4.8 0.00 0.00 0.00 85 1048.2
20260903025142 15 292 0.0 4.8 0.00 0.00 0.00 85 1056.4
20260903024943 15 225 4.8 4.8 0.00 0.00 0.00 85 1031.2
20260903024443 14 202 3.2 3.2 0.00 0.00 0.00 85 1053.2
20260903024024 14 225 0.0 0.0 0.00 0.00 0.00 85 1042.9
20260903023943 14 225 0.0 0.0 0.00 0.00 0.00 85 1042.9
20260903023443 14 180 0.0 0.0 0.00 0.00 0.00 85 1050.1
20260903022943 14 247 0.0 3.2 0.00 0.00 0.00 85 1053.2
20260903022443 14 157 0.0 3.2 0.00 0.00 0.00 85 1004.0
20260903021943 14 202 0.0 0.0 0.00 0.00 0.00 85 1050.1
20260903021842 14 225 0.0 0.0 0.00 0.00 0.00 85 1046.9
20260903021443 14 202 0.0 0.0 0.00 0.00 0.00 85 1056.3
20260903020943 14 180 0.0 1.6 0.00 0.00 0.00 86 1043.8
20260903020443 14 202 1.6 3.2 0.00 0.00 0.00 86 1034.3
20260903015943 14 247 0.0 3.2 0.00 0.00 0.00 86 1059.5
20260903015443 14 270 0.0 1.6 0.00 0.00 0.00 86 1062.7
20260903014943 14 270 0.0 0.0 0.00 0.00 0.00 86 1050.1
20260903014542 14 315 0.0 0.0 0.00 0.00 0.00 86 1036.2
20260903014443 14 337 0.0 0.0 0.00 0.00 0.00 86 1064.5
20260903013943 14 135 0.0 0.0 0.00 0.00 0.00 86 1043.8
20260903013443 14 112 0.0 0.0 0.00 0.00 0.00 86 1040.6
20260903012943 14 0 0.0 0.0 0.00 0.00 0.00 86 1033.9
20260903012443 14 270 0.0 0.0 0.00 0.00 0.00 86 1060.7
20260903011943 14 270 0.0 0.0 0.00 0.00 0.00 86 1053.2
20260903011443 13 270 0.0 0.0 0.00 0.00 0.00 86 1040.5
20260903011242 13 247 0.0 0.0 0.00 0.00 0.00 86 1018.4
20260903010943 13 180 0.0 0.0 0.00 0.00 0.00 86 1061.8
20260903010443 13 157 0.0 0.0 0.00 0.00 0.00 86 1014.0
20260903005943 13 157 0.0 0.0 0.00 0.00 0.00 86 1047.0
20260903005443 13 157 0.0 1.6 0.00 0.00 0.00 86 1044.3
20260903004943 13 135 1.6 1.6 0.00 0.00 0.00 86 1050.2
20260903004443 13 180 0.0 0.0 0.00 0.00 0.00 86 1067.9
20260903003942 13 202 0.0 0.0 0.00 0.00 0.00 85 1062.7
20260903003443 13 270 0.0 0.0 0.00 0.00 0.00 85 1037.5
20260903002943 13 247 0.0 0.0 0.00 0.00 0.00 85 1053.2
20260903002443 13 247 0.0 0.0 0.00 0.00 0.00 85 1045.8
20260903001943 13 247 0.0 1.6 0.00 0.00 0.00 85 1045.5
20260903001443 13 157 0.0 1.6 0.00 0.00 0.00 85 1050.0
20260903000943 13 157 0.0 0.0 0.00 0.00 0.00 85 1052.8
20260903000642 13 157 0.0 0.0 0.00 0.00 0.00 85 1056.4
20260903000443 13 202 0.0 0.0 0.00 0.00 0.00 85 1037.5
20260902235943 13 180 0.0 0.0 0.00 0.00 0.00 85 1057.6
20260902235443 13 202 0.0 0.0 0.00 0.00 0.00 85 1002.8
20260902234943 13 202 0.0 3.2 0.00 0.00 0.00 85 1050.5
20260902234443 13 202 0.0 0.0 0.00 0.00 0.00 85 1053.5
20260902233943 13 202 0.0 0.0 0.00 0.00 0.00 85 1054.2
20260902233443 13 157 0.0 0.0 0.00 0.00 0.00 85 1010.6
20260902233342 13 157 0.0 0.0 0.00 0.00 0.00 85 989.1
20260902232943 13 135 0.0 0.0 0.00 0.00 0.00 85 1066.9
20260902232443 13 180 0.0 0.0 0.00 0.00 0.00 85 1070.9
20260902231943 13 202 0.0 0.0 0.00 0.00 0.00 85 1047.6
20260902231443 13 225 0.0 0.0 0.00 0.00 0.00 85 1050.1
20260902230943 13 202 0.0 0.0 0.00 0.00 0.00 85 1059.5
20260902230443 13 135 0.0 0.0 0.00 0.00 0.00 85 1044.6
20260902230042 13 202 0.0 0.0 0.00 0.00 0.00 85 1019.6
20260902225943 12 247 0.0 0.0 0.00 0.00 0.00 85 1064.1
20260902225443 12 225 0.0 0.0 0.00 0.00 0.00 84 1004.7
20260902224943 12 225 0.0 0.0 0.00 0.00 0.00 84 1074.2
20260902224443 12 180 0.0 0.0 0.00 0.00 0.00 84 1014.1
20260902223943 12 180 0.0 0.0 0.00 0.00 0.00 84 976.4
20260902223443 12 157 0.0 0.0 0.00 0.00 0.00 83 1053.6
20260902222943 12 157 0.0 0.0 0.00 0.00 0.00 83 1040.6
20260902222742 12 157 0.0 0.0 0.00 0.00 0.00 83 1045.5
20260902222443 12 135 0.0 0.0 0.00 0.00 0.00 83 1043.4
20260902221943 13 135 0.0 0.0 0.00 0.00 0.00 83 1076.7
20260902221444 13 112 0.0 0.0 0.00 0.00 0.00 83 1054.7
20260902220943 13 112 0.0 0.0 0.00 0.00 0.00 83 1010.3
20260902220443 13 135 0.0 0.0 0.00 0.00 0.00 82 1071.0
20260902215943 13 135 0.0 0.0 0.00 0.00 0.00 82 1066.4
20260902215442 13 135 0.0 0.0 0.00 0.00 0.00 82 1076.6
20260902214943 13 157 0.0 0.0 0.00 0.00 0.00 82 1059.5
20260902214443 13 157 0.0 0.0 0.00 0.00 0.00 82 1046.3
20260902213944 13 135 0.0 1.6 0.00 0.00 0.00 82 1052.8
20260902213443 13 135 1.6 1.6 0.00 0.00 0.00 82 1065.8
20260902212943 13 112 0.0 0.0 0.00 0.00 0.00 81 1006.7
20260902212444 13 135 0.0 0.0 0.00 0.00 0.00 81 1063.0
20260902212142 13 135 0.0 0.0 0.00 0.00 0.00 81 1049.9
20260902211943 13 112 0.0 0.0 0.00 0.00 0.00 81 1061.0
20260902211443 13 135 0.0 0.0 0.00 0.00 0.00 81 1012.7
20260902210943 13 157 0.0 0.0 0.00 0.00 0.00 80 1027.8
20260902210443 13 157 0.0 0.0 0.00 0.00 0.00 80 1063.4
20260902205943 13 135 0.0 0.0 0.00 0.00 0.00 80 1031.0
20260902205443 13 180 0.0 0.0 0.00 0.00 0.00 79 1062.8
20260902204943 14 202 0.0 0.0 0.00 0.00 0.00 79 1044.9
20260902204842 14 202 0.0 0.0 0.00 0.00 0.00 79 1066.9
20260902204443 14 202 0.0 0.0 0.00 0.00 0.00 79 1073.0
20260902203943 14 180 0.0 0.0 0.00 0.00 0.00 79 1078.2
20260902203443 14 180 0.0 0.0 0.00 0.00 0.00 79 1060.8
20260902202943 14 180 0.0 0.0 0.00 0.00 0.00 78 1027.6
20260902202443 14 180 0.0 0.0 0.00 0.00 0.00 78 1075.9
20260902201943 14 180 0.0 0.0 0.00 0.00 0.00 78 1023.1
20260902201542 14 157 0.0 0.0 0.00 0.00 0.00 78 993.6
20260902201443 14 157 0.0 0.0 0.00 0.00 0.00 78 1034.2
20260902200943 14 180 0.0 0.0 0.00 0.00 0.00 78 995.2
20260902200443 15 180 0.0 1.6 0.00 0.00 0.00 78 1050.3
20260902195943 15 180 0.0 0.0 0.00 0.00 0.00 77 1043.3
20260902195443 15 180 0.0 0.0 0.00 0.00 0.00 77 1050.1
20260902194944 15 157 0.0 0.0 0.00 0.00 0.00 77 1076.8
20260902194443 15 180 0.0 0.0 0.00 0.00 0.00 76 1064.2
20260902194242 15 180 0.0 0.0 0.00 0.00 0.00 76 1048.8
20260902193944 15 157 0.0 1.6 0.00 0.00 0.00 76 1062.7
20260902193443 15 157 0.0 3.2 0.00 0.00 0.00 75 1068.5
20260902192943 15 157 1.6 3.2 0.00 0.00 0.00 75 1043.8
20260902192443 15 67 0.0 0.0 0.00 0.00 0.00 75 1030.3
20260902191944 15 45 0.0 0.0 0.00 0.00 0.00 74 1025.7
20260902191443 15 135 0.0 0.0 0.00 0.00 0.00 73 1069.2
20260902190943 15 135 0.0 0.0 0.00 0.00 0.00 73 1047.4
20260902190444 15 135 0.0 0.0 0.00 0.00 0.00 73 1043.8
20260902185943 15 157 0.0 0.0 0.00 0.00 0.00 72 1057.5
20260902185443 16 135 0.0 0.0 0.00 0.00 0.00 72 1070.5
20260902184944 16 135 0.0 0.0 0.00 0.00 0.00 72 1059.5
20260902184444 16 135 0.0 0.0 0.00 0.00 0.00 71 1029.7
20260902183944 16 135 0.0 0.0 0.00 0.00 0.00 71 1063.2
20260902183643 16 157 0.0 0.0 0.00 0.00 0.00 70 1074.1
20260902183444 16 225 0.0 0.0 0.00 0.00 0.00 70 1056.4
20260902182944 16 247 0.0 0.0 0.00 0.00 0.00 69 1074.5
20260902182444 16 247 0.0 0.0 0.00 0.00 0.00 68 1053.2
20260902181944 16 225 0.0 0.0 0.00 0.00 0.00 68 1067.1
20260902181444 17 247 0.0 0.0 0.00 0.00 0.00 67 1055.0
20260902180944 17 247 0.0 0.0 0.00 0.00 0.00 66 1056.4
20260902180444 17 225 0.0 1.6 0.00 0.00 0.00 66 1065.8
20260902180343 17 225 0.0 1.6 0.00 0.00 0.00 65 972.1
20260902175944 17 225 1.6 9.7 0.00 0.00 0.00 65 1078.4
20260902175444 17 247 0.0 1.6 0.00 0.00 0.00 64 1053.8
20260902174944 17 270 1.6 1.6 0.00 0.00 0.00 64 1034.3
20260902174444 17 270 0.0 1.6 0.00 0.00 0.00 63 1059.5
20260902173944 17 270 0.0 3.2 0.00 0.00 0.00 62 1056.4
20260902173444 18 270 3.2 3.2 0.00 0.00 0.00 61 1069.4
20260902173043 18 270 0.0 3.2 0.00 0.00 0.00 60 989.2
20260902172944 18 225 0.0 3.2 0.00 0.00 0.00 60 1043.8
20260902172444 18 270 0.0 3.2 0.00 0.00 0.00 60 1040.6
20260902171944 18 225 3.2 3.2 0.00 0.00 0.00 59 1065.8
20260902171444 18 225 0.0 3.2 0.00 0.00 0.00 58 1059.5
20260902170944 19 202 0.0 4.8 0.00 0.00 0.00 58 1066.5
20260902170444 19 270 0.0 4.8 0.00 0.00 0.00 57 1025.1
20260902165944 20 270 3.2 8.0 0.00 0.00 0.00 57 1068.5